Location: Haliburton Scout Reserve
(45.0900°N, 78.3200°W)
Time: 10:31:14
(UTC-04:00)

S-56A Canister/Altair - Pass Details

Date: 05 February 2023
Orbit: 638 x 2493 km, 38.9° (Epoch: 25 March)

Event Time Altitude Azimuth Distance (km) Brightness Sun altitude
Rises 15:39:32 0° 270° (W) 3,409 11.6 15.1°
Reaches altitude 10° 15:42:09 10° 257° (WSW) 2,665 11.6 14.8°
Maximum altitude 15:47:20 26° 203° (SSW) 2,131 11.1 14.1°
Drops below altitude 10° 15:54:18 10° 152° (SSE) 3,674 11.2 13.2°
Sets 15:58:39 0° 141° (SE) 5,006 11.7 12.6°
